Year,Month,Day,Hour,Minute,Value (Times are PST for temperature in C)
2013,04,21,00,00,6.30
2013,04,21,00,01,6.30
2013,04,21,00,02,6.30
2013,04,21,00,03,6.30
2013,04,21,00,04,6.30
2013,04,21,00,05,6.30
2013,04,21,00,06,6.20
2013,04,21,00,07,6.20
2013,04,21,00,08,6.20
2013,04,21,00,09,6.20
2013,04,21,00,10,6.10
2013,04,21,00,11,6.10
2013,04,21,00,12,6.10
2013,04,21,00,13,6.10
2013,04,21,00,14,6.10
2013,04,21,00,15,6.00
2013,04,21,00,16,6.00
2013,04,21,00,17,6.00
2013,04,21,00,18,6.00
2013,04,21,00,19,5.90
2013,04,21,00,20,5.90
2013,04,21,00,21,5.90
2013,04,21,00,22,5.90
2013,04,21,00,23,5.90
2013,04,21,00,24,5.90
2013,04,21,00,25,5.90
2013,04,21,00,26,5.90
2013,04,21,00,27,5.90
2013,04,21,00,28,5.90
2013,04,21,00,29,5.90
2013,04,21,00,30,5.90
2013,04,21,00,31,5.90
2013,04,21,00,32,5.90
2013,04,21,00,33,5.90
2013,04,21,00,34,5.90
2013,04,21,00,35,5.90
2013,04,21,00,36,5.80
2013,04,21,00,37,5.80
2013,04,21,00,38,5.80
2013,04,21,00,39,5.80
2013,04,21,00,40,5.80
2013,04,21,00,41,5.80
2013,04,21,00,42,5.80
2013,04,21,00,43,5.80
2013,04,21,00,44,5.80
2013,04,21,00,45,5.80
2013,04,21,00,46,5.80
2013,04,21,00,47,5.80
2013,04,21,00,48,5.80
2013,04,21,00,49,5.80
2013,04,21,00,50,5.70
2013,04,21,00,51,5.70
2013,04,21,00,52,5.70
2013,04,21,00,53,5.70
2013,04,21,00,54,5.70
2013,04,21,00,55,5.70
2013,04,21,00,56,5.70
2013,04,21,00,57,5.70
2013,04,21,00,58,5.60
2013,04,21,00,59,5.70
2013,04,21,01,00,5.70
2013,04,21,01,01,5.70
2013,04,21,01,02,5.70
2013,04,21,01,03,5.70
2013,04,21,01,04,5.70
2013,04,21,01,05,5.70
2013,04,21,01,06,5.70
2013,04,21,01,07,5.70
2013,04,21,01,08,5.70
2013,04,21,01,09,5.70
2013,04,21,01,10,5.70
2013,04,21,01,11,5.70
2013,04,21,01,12,5.80
2013,04,21,01,13,5.80
2013,04,21,01,14,5.80
2013,04,21,01,15,5.80
2013,04,21,01,16,5.80
2013,04,21,01,17,5.80
2013,04,21,01,18,5.70
2013,04,21,01,19,5.70
2013,04,21,01,20,5.70
2013,04,21,01,21,5.70
2013,04,21,01,22,5.70
2013,04,21,01,23,5.70
2013,04,21,01,24,5.70
2013,04,21,01,25,5.70
2013,04,21,01,26,5.70
2013,04,21,01,27,5.70
2013,04,21,01,28,5.70
2013,04,21,01,29,5.70
2013,04,21,01,30,5.60
2013,04,21,01,31,5.60
2013,04,21,01,32,5.60
2013,04,21,01,33,5.60
2013,04,21,01,34,5.60
2013,04,21,01,35,5.60
2013,04,21,01,36,5.60
2013,04,21,01,37,5.60
2013,04,21,01,38,5.60
2013,04,21,01,39,5.60
2013,04,21,01,40,5.70
2013,04,21,01,41,5.70
2013,04,21,01,42,5.70
2013,04,21,01,43,5.70
2013,04,21,01,44,5.70
2013,04,21,01,45,5.60
2013,04,21,01,46,5.60
2013,04,21,01,47,5.60
2013,04,21,01,48,5.60
2013,04,21,01,49,5.60
2013,04,21,01,50,5.60
2013,04,21,01,51,5.60
2013,04,21,01,52,5.50
2013,04,21,01,53,5.50
2013,04,21,01,54,5.50
2013,04,21,01,55,5.40
2013,04,21,01,56,5.40
2013,04,21,01,57,5.40
2013,04,21,01,58,5.40
2013,04,21,01,59,5.40
2013,04,21,02,00,5.40
2013,04,21,02,01,5.40
2013,04,21,02,02,5.40
2013,04,21,02,03,5.40
2013,04,21,02,04,5.40
2013,04,21,02,05,5.40
2013,04,21,02,06,5.40
2013,04,21,02,07,5.40
2013,04,21,02,08,5.40
2013,04,21,02,09,5.40
2013,04,21,02,10,5.40
2013,04,21,02,11,5.40
2013,04,21,02,12,5.40
2013,04,21,02,13,5.40
2013,04,21,02,14,5.40
2013,04,21,02,15,5.40
2013,04,21,02,16,5.40
2013,04,21,02,17,5.40
2013,04,21,02,18,5.40
2013,04,21,02,19,5.40
2013,04,21,02,20,5.40
2013,04,21,02,21,5.40
2013,04,21,02,22,5.40
2013,04,21,02,23,5.40
2013,04,21,02,24,5.40
2013,04,21,02,25,5.40
2013,04,21,02,26,5.40
2013,04,21,02,27,5.40
2013,04,21,02,28,5.40
2013,04,21,02,29,5.40
2013,04,21,02,30,5.40
2013,04,21,02,31,5.40
2013,04,21,02,32,5.40
2013,04,21,02,33,5.40
2013,04,21,02,34,5.40
2013,04,21,02,35,5.40
2013,04,21,02,36,5.40
2013,04,21,02,37,5.40
2013,04,21,02,38,5.50
2013,04,21,02,39,5.50
2013,04,21,02,40,5.50
2013,04,21,02,41,5.50
2013,04,21,02,42,5.60
2013,04,21,02,43,5.60
2013,04,21,02,44,5.60
2013,04,21,02,45,5.60
2013,04,21,02,46,5.60
2013,04,21,02,47,5.60
2013,04,21,02,48,5.60
2013,04,21,02,49,5.60
2013,04,21,02,50,5.70
2013,04,21,02,51,5.70
2013,04,21,02,52,5.80
2013,04,21,02,53,5.80
2013,04,21,02,54,5.80
2013,04,21,02,55,5.80
2013,04,21,02,56,5.90
2013,04,21,02,57,5.90
2013,04,21,02,58,5.90
2013,04,21,02,59,5.90
2013,04,21,03,00,5.90
2013,04,21,03,01,6.00
2013,04,21,03,02,6.00
2013,04,21,03,03,6.00
2013,04,21,03,04,6.00
2013,04,21,03,05,6.00
2013,04,21,03,06,6.00
2013,04,21,03,07,6.00
2013,04,21,03,08,6.00
2013,04,21,03,09,6.00
2013,04,21,03,10,6.00
2013,04,21,03,11,5.90
2013,04,21,03,12,5.90
2013,04,21,03,13,5.90
2013,04,21,03,14,5.90
2013,04,21,03,15,5.90
2013,04,21,03,16,5.90
2013,04,21,03,17,5.80
2013,04,21,03,18,5.80
2013,04,21,03,19,5.80
2013,04,21,03,20,5.80
2013,04,21,03,21,5.80
2013,04,21,03,22,5.80
2013,04,21,03,23,5.80
2013,04,21,03,24,5.80
2013,04,21,03,25,5.80
2013,04,21,03,26,5.80
2013,04,21,03,27,5.80
2013,04,21,03,28,5.80
2013,04,21,03,29,5.80
2013,04,21,03,30,5.80
2013,04,21,03,31,5.80
2013,04,21,03,32,5.80
2013,04,21,03,33,5.80
2013,04,21,03,34,5.80
2013,04,21,03,35,5.80
2013,04,21,03,36,5.80
2013,04,21,03,37,5.80
2013,04,21,03,38,5.80
2013,04,21,03,39,5.80
2013,04,21,03,40,5.90
2013,04,21,03,41,5.80
2013,04,21,03,42,5.90
2013,04,21,03,43,5.90
2013,04,21,03,44,5.90
2013,04,21,03,45,5.90
2013,04,21,03,46,5.90
2013,04,21,03,47,5.90
2013,04,21,03,48,5.90
2013,04,21,03,49,5.90
2013,04,21,03,50,5.90
2013,04,21,03,51,5.90
2013,04,21,03,52,5.90
2013,04,21,03,53,5.90
2013,04,21,03,54,5.90
2013,04,21,03,55,5.90
2013,04,21,03,56,5.90
2013,04,21,03,57,5.90
2013,04,21,03,58,5.90
2013,04,21,03,59,5.90
2013,04,21,04,00,5.90
2013,04,21,04,01,5.90
2013,04,21,04,02,5.90
2013,04,21,04,03,5.90
2013,04,21,04,04,5.90
2013,04,21,04,05,5.90
2013,04,21,04,06,5.90
2013,04,21,04,07,5.90
2013,04,21,04,08,5.80
2013,04,21,04,09,5.80
2013,04,21,04,10,5.80
2013,04,21,04,11,5.80
2013,04,21,04,12,5.80
2013,04,21,04,13,5.80
2013,04,21,04,14,5.80
2013,04,21,04,15,5.80
2013,04,21,04,16,5.80
2013,04,21,04,17,5.80
2013,04,21,04,18,5.80
2013,04,21,04,19,5.80
2013,04,21,04,20,5.80
2013,04,21,04,21,5.80
2013,04,21,04,22,5.80
2013,04,21,04,23,5.80
2013,04,21,04,24,5.70
2013,04,21,04,25,5.70
2013,04,21,04,26,5.70
2013,04,21,04,27,5.70
2013,04,21,04,28,5.70
2013,04,21,04,29,5.70
2013,04,21,04,30,5.70
2013,04,21,04,31,5.60
2013,04,21,04,32,5.60
2013,04,21,04,33,5.60
2013,04,21,04,34,5.60
2013,04,21,04,35,5.60
2013,04,21,04,36,5.60
2013,04,21,04,37,5.60
2013,04,21,04,38,5.60
2013,04,21,04,39,5.50
2013,04,21,04,40,5.50
2013,04,21,04,41,5.50
2013,04,21,04,42,5.50
2013,04,21,04,43,5.50
2013,04,21,04,44,5.50
2013,04,21,04,45,5.50
2013,04,21,04,46,5.50
2013,04,21,04,47,5.50
2013,04,21,04,48,5.50
2013,04,21,04,49,5.50
2013,04,21,04,50,5.50
2013,04,21,04,51,5.50
2013,04,21,04,52,5.40
2013,04,21,04,53,5.40
2013,04,21,04,54,5.40
2013,04,21,04,55,5.40
2013,04,21,04,56,5.40
2013,04,21,04,57,5.40
2013,04,21,04,58,5.40
2013,04,21,04,59,5.30
2013,04,21,05,00,5.30
2013,04,21,05,01,5.30
2013,04,21,05,02,5.30
2013,04,21,05,03,5.20
2013,04,21,05,04,5.20
2013,04,21,05,05,5.20
2013,04,21,05,06,5.20
2013,04,21,05,07,5.10
2013,04,21,05,08,5.10
2013,04,21,05,09,5.10
2013,04,21,05,10,5.10
2013,04,21,05,11,5.10
2013,04,21,05,12,5.10
2013,04,21,05,13,5.00
2013,04,21,05,14,5.00
2013,04,21,05,15,5.00
2013,04,21,05,16,4.90
2013,04,21,05,17,4.90
2013,04,21,05,18,4.90
2013,04,21,05,19,4.90
2013,04,21,05,20,4.80
2013,04,21,05,21,4.80
2013,04,21,05,22,4.80
2013,04,21,05,23,4.80
2013,04,21,05,24,4.80
2013,04,21,05,25,4.70
2013,04,21,05,26,4.70
2013,04,21,05,27,4.70
2013,04,21,05,28,4.60
2013,04,21,05,29,4.60
2013,04,21,05,30,4.60
2013,04,21,05,31,4.50
2013,04,21,05,32,4.50
2013,04,21,05,33,4.40
2013,04,21,05,34,4.40
2013,04,21,05,35,4.40
2013,04,21,05,36,4.30
2013,04,21,05,37,4.30
2013,04,21,05,38,4.30
2013,04,21,05,39,4.30
2013,04,21,05,40,4.30
2013,04,21,05,41,4.20
2013,04,21,05,42,4.20
2013,04,21,05,43,4.20
2013,04,21,05,44,4.20
2013,04,21,05,45,4.20
2013,04,21,05,46,4.10
2013,04,21,05,47,4.10
2013,04,21,05,48,4.10
2013,04,21,05,49,4.10
2013,04,21,05,50,4.10
2013,04,21,05,51,4.10
2013,04,21,05,52,4.00
2013,04,21,05,53,4.00
2013,04,21,05,54,3.90
2013,04,21,05,55,3.90
2013,04,21,05,56,3.90
2013,04,21,05,57,3.90
2013,04,21,05,58,3.80
2013,04,21,05,59,3.80
2013,04,21,06,00,3.80
2013,04,21,06,01,3.80
2013,04,21,06,02,3.80
2013,04,21,06,03,3.70
2013,04,21,06,04,3.70
2013,04,21,06,05,3.70
2013,04,21,06,06,3.70
2013,04,21,06,07,3.70
2013,04,21,06,08,3.70
2013,04,21,06,09,3.70
2013,04,21,06,10,3.70
2013,04,21,06,11,3.70
2013,04,21,06,12,3.70
2013,04,21,06,13,3.60
2013,04,21,06,14,3.60
2013,04,21,06,15,3.60
2013,04,21,06,16,3.60
2013,04,21,06,17,3.60
2013,04,21,06,18,3.50
2013,04,21,06,19,3.50
2013,04,21,06,20,3.50
2013,04,21,06,21,3.50
2013,04,21,06,22,3.50
2013,04,21,06,23,3.50
2013,04,21,06,24,3.40
2013,04,21,06,25,3.40
2013,04,21,06,26,3.40
2013,04,21,06,27,3.40
2013,04,21,06,28,3.40
2013,04,21,06,29,3.40
2013,04,21,06,30,3.40
2013,04,21,06,31,3.40
2013,04,21,06,32,3.40
2013,04,21,06,33,3.40
2013,04,21,06,34,3.30
2013,04,21,06,35,3.30
2013,04,21,06,36,3.30
2013,04,21,06,37,3.30
2013,04,21,06,38,3.30
2013,04,21,06,39,3.30
2013,04,21,06,40,3.30
2013,04,21,06,41,3.30
2013,04,21,06,42,3.30
2013,04,21,06,43,3.30
2013,04,21,06,44,3.30
2013,04,21,06,45,3.30
2013,04,21,06,46,3.20
2013,04,21,06,47,3.20
2013,04,21,06,48,3.20
2013,04,21,06,49,3.20
2013,04,21,06,50,3.20
2013,04,21,06,51,3.20
2013,04,21,06,52,3.20
2013,04,21,06,53,3.20
2013,04,21,06,54,3.20
2013,04,21,06,55,3.20
2013,04,21,06,56,3.20
2013,04,21,06,57,3.20
2013,04,21,06,58,3.20
2013,04,21,06,59,3.20
2013,04,21,07,00,3.20
2013,04,21,07,01,3.20
2013,04,21,07,02,3.20
2013,04,21,07,03,3.20
2013,04,21,07,04,3.20
2013,04,21,07,05,3.20
2013,04,21,07,06,3.20
2013,04,21,07,07,3.30
2013,04,21,07,08,3.30
2013,04,21,07,09,3.30
2013,04,21,07,10,3.30
2013,04,21,07,11,3.30
2013,04,21,07,12,3.30
2013,04,21,07,13,3.40
2013,04,21,07,14,3.40
2013,04,21,07,15,3.40
2013,04,21,07,16,3.40
2013,04,21,07,17,3.40
2013,04,21,07,18,3.40
2013,04,21,07,19,3.50
2013,04,21,07,20,3.50
2013,04,21,07,21,3.60
2013,04,21,07,22,3.60
2013,04,21,07,23,3.60
2013,04,21,07,24,3.70
2013,04,21,07,25,3.70
2013,04,21,07,26,3.70
2013,04,21,07,27,3.80
2013,04,21,07,28,3.80
2013,04,21,07,29,3.80
2013,04,21,07,30,3.90
2013,04,21,07,31,3.90
2013,04,21,07,32,4.00
2013,04,21,07,33,4.00
2013,04,21,07,34,4.10
2013,04,21,07,35,4.10
2013,04,21,07,36,4.10
2013,04,21,07,37,4.20
2013,04,21,07,38,4.20
2013,04,21,07,39,4.20
2013,04,21,07,40,4.30
2013,04,21,07,41,4.40
2013,04,21,07,42,4.40
2013,04,21,07,43,4.50
2013,04,21,07,44,4.50
2013,04,21,07,45,4.60
2013,04,21,07,46,4.70
2013,04,21,07,47,4.70
2013,04,21,07,48,4.80
2013,04,21,07,49,4.90
2013,04,21,07,50,4.90
2013,04,21,07,51,5.00
2013,04,21,07,52,5.00
2013,04,21,07,53,5.10
2013,04,21,07,54,5.20
2013,04,21,07,55,5.20
2013,04,21,07,56,5.30
2013,04,21,07,57,5.30
2013,04,21,07,58,5.40
2013,04,21,07,59,5.50
2013,04,21,08,00,5.50
2013,04,21,08,01,5.60
2013,04,21,08,02,5.70
2013,04,21,08,03,5.80
2013,04,21,08,04,5.90
2013,04,21,08,05,6.00
2013,04,21,08,06,6.10
2013,04,21,08,07,6.10
2013,04,21,08,08,6.20
2013,04,21,08,09,6.30
2013,04,21,08,10,6.30
2013,04,21,08,11,6.40
2013,04,21,08,12,6.50
2013,04,21,08,13,6.50
2013,04,21,08,14,6.60
2013,04,21,08,15,6.70
2013,04,21,08,16,6.80
2013,04,21,08,17,6.90
2013,04,21,08,18,6.90
2013,04,21,08,19,7.00
2013,04,21,08,20,7.00
2013,04,21,08,21,7.10
2013,04,21,08,22,7.20
2013,04,21,08,23,7.20
2013,04,21,08,24,7.20
2013,04,21,08,25,7.30
2013,04,21,08,26,7.30
2013,04,21,08,27,7.40
2013,04,21,08,28,7.40
2013,04,21,08,29,7.50
2013,04,21,08,30,7.50
2013,04,21,08,31,7.50
2013,04,21,08,32,7.60
2013,04,21,08,33,7.60
2013,04,21,08,34,7.70
2013,04,21,08,35,7.70
2013,04,21,08,36,7.70
2013,04,21,08,37,7.80
2013,04,21,08,38,7.80
2013,04,21,08,39,7.80
2013,04,21,08,40,7.90
2013,04,21,08,41,7.90
2013,04,21,08,42,8.00
2013,04,21,08,43,8.00
2013,04,21,08,44,8.10
2013,04,21,08,45,8.10
2013,04,21,08,46,8.10
2013,04,21,08,47,8.10
2013,04,21,08,48,8.20
2013,04,21,08,49,8.20
2013,04,21,08,50,8.20
2013,04,21,08,51,8.30
2013,04,21,08,52,8.30
2013,04,21,08,53,8.30
2013,04,21,08,54,8.30
2013,04,21,08,55,8.30
2013,04,21,08,56,8.30
2013,04,21,08,57,8.40
2013,04,21,08,58,8.40
2013,04,21,08,59,8.40
2013,04,21,09,00,8.50
2013,04,21,09,01,8.50
2013,04,21,09,02,8.60
2013,04,21,09,03,8.60
2013,04,21,09,04,8.60
2013,04,21,09,05,8.60
2013,04,21,09,06,8.60
2013,04,21,09,07,8.70
2013,04,21,09,08,8.70
2013,04,21,09,09,8.70
2013,04,21,09,10,8.80
2013,04,21,09,11,8.80
2013,04,21,09,12,8.80
2013,04,21,09,13,8.80
2013,04,21,09,14,8.80
2013,04,21,09,15,8.90
2013,04,21,09,16,8.90
2013,04,21,09,17,8.90
2013,04,21,09,18,9.00
2013,04,21,09,19,9.00
2013,04,21,09,20,9.10
2013,04,21,09,21,9.10
2013,04,21,09,22,9.10
2013,04,21,09,23,9.10
2013,04,21,09,24,9.10
2013,04,21,09,25,9.10
2013,04,21,09,26,9.10
2013,04,21,09,27,9.10
2013,04,21,09,28,9.00
2013,04,21,09,29,9.00
2013,04,21,09,30,9.00
2013,04,21,09,31,9.00
2013,04,21,09,32,9.00
2013,04,21,09,33,9.10
2013,04,21,09,34,9.10
2013,04,21,09,35,9.10
2013,04,21,09,36,9.20
2013,04,21,09,37,9.20
2013,04,21,09,38,9.20
2013,04,21,09,39,9.30
2013,04,21,09,40,9.30
2013,04,21,09,41,9.40
2013,04,21,09,42,9.40
2013,04,21,09,43,9.50
2013,04,21,09,44,9.50
2013,04,21,09,45,9.60
2013,04,21,09,46,9.70
2013,04,21,09,47,9.70
2013,04,21,09,48,9.80
2013,04,21,09,49,9.80
2013,04,21,09,50,9.80
2013,04,21,09,51,9.90
2013,04,21,09,52,9.90
2013,04,21,09,53,9.90
2013,04,21,09,54,9.90
2013,04,21,09,55,10.00
2013,04,21,09,56,10.00
2013,04,21,09,57,10.00
2013,04,21,09,58,10.10
2013,04,21,09,59,10.10
2013,04,21,10,00,10.20
2013,04,21,10,01,10.20
2013,04,21,10,02,10.20
2013,04,21,10,03,10.20
2013,04,21,10,04,10.20
2013,04,21,10,05,10.20
2013,04,21,10,06,10.20
2013,04,21,10,07,10.20
2013,04,21,10,08,10.20
2013,04,21,10,09,10.20
2013,04,21,10,10,10.20
2013,04,21,10,11,10.20
2013,04,21,10,12,10.20
2013,04,21,10,13,10.20
2013,04,21,10,14,10.30
2013,04,21,10,15,10.30
2013,04,21,10,16,10.40
2013,04,21,10,17,10.40
2013,04,21,10,18,10.50
2013,04,21,10,19,10.50
2013,04,21,10,20,10.50
2013,04,21,10,21,10.50
2013,04,21,10,22,10.50
2013,04,21,10,23,10.50
2013,04,21,10,24,10.50
2013,04,21,10,25,10.50
2013,04,21,10,26,10.50
2013,04,21,10,27,10.50
2013,04,21,10,28,10.50
2013,04,21,10,29,10.40
2013,04,21,10,30,10.40
2013,04,21,10,31,10.40
2013,04,21,10,32,10.40
2013,04,21,10,33,10.40
2013,04,21,10,34,10.40
2013,04,21,10,35,10.40
2013,04,21,10,36,10.40
2013,04,21,10,37,10.40
2013,04,21,10,38,10.50
2013,04,21,10,39,10.50
2013,04,21,10,40,10.60
2013,04,21,10,41,10.60
2013,04,21,10,42,10.70
2013,04,21,10,43,10.70
2013,04,21,10,44,10.70
2013,04,21,10,45,10.70
2013,04,21,10,46,10.80
2013,04,21,10,47,10.80
2013,04,21,10,48,10.80
2013,04,21,10,49,10.80
2013,04,21,10,50,10.80
2013,04,21,10,51,10.80
2013,04,21,10,52,10.70
2013,04,21,10,53,10.70
2013,04,21,10,54,10.60
2013,04,21,10,55,10.60
2013,04,21,10,56,10.60
2013,04,21,10,57,10.70
2013,04,21,10,58,10.70
2013,04,21,10,59,10.80
2013,04,21,11,00,10.80
2013,04,21,11,01,10.90
2013,04,21,11,02,11.00
2013,04,21,11,03,11.10
2013,04,21,11,04,11.10
2013,04,21,11,05,11.10
2013,04,21,11,06,11.10
2013,04,21,11,07,11.10
2013,04,21,11,08,11.20
2013,04,21,11,09,11.20
2013,04,21,11,10,11.30
2013,04,21,11,11,11.40
2013,04,21,11,12,11.50
2013,04,21,11,13,11.60
2013,04,21,11,14,11.60
2013,04,21,11,15,11.70
2013,04,21,11,16,11.70
2013,04,21,11,17,11.60
2013,04,21,11,18,11.60
2013,04,21,11,19,11.60
2013,04,21,11,20,11.60
2013,04,21,11,21,11.70
2013,04,21,11,22,11.70
2013,04,21,11,23,11.70
2013,04,21,11,24,11.70
2013,04,21,11,25,11.80
2013,04,21,11,26,11.70
2013,04,21,11,27,11.70
2013,04,21,11,28,11.60
2013,04,21,11,29,11.50
2013,04,21,11,30,11.40
2013,04,21,11,31,11.40
2013,04,21,11,32,11.40
2013,04,21,11,33,11.30
2013,04,21,11,34,11.30
2013,04,21,11,35,11.30
2013,04,21,11,36,11.30
2013,04,21,11,37,11.40
2013,04,21,11,38,11.30
2013,04,21,11,39,11.30
2013,04,21,11,40,11.30
2013,04,21,11,41,11.20
2013,04,21,11,42,11.20
2013,04,21,11,43,11.20
2013,04,21,11,44,11.10
2013,04,21,11,45,11.10
2013,04,21,11,46,11.10
2013,04,21,11,47,11.10
2013,04,21,11,48,11.10
2013,04,21,11,49,11.10
2013,04,21,11,50,11.10
2013,04,21,11,51,11.00
2013,04,21,11,52,11.00
2013,04,21,11,53,10.90
2013,04,21,11,54,10.90
2013,04,21,11,55,10.90
2013,04,21,11,56,10.90
2013,04,21,11,57,10.90
2013,04,21,11,58,10.90
2013,04,21,11,59,10.90
2013,04,21,12,00,10.90
2013,04,21,12,01,10.90
2013,04,21,12,02,10.90
2013,04,21,12,03,10.90
2013,04,21,12,04,10.90
2013,04,21,12,05,10.80
2013,04,21,12,06,10.80
2013,04,21,12,07,10.70
2013,04,21,12,08,10.70
2013,04,21,12,09,10.70
2013,04,21,12,10,10.70
2013,04,21,12,11,10.70
2013,04,21,12,12,10.70
2013,04,21,12,13,10.70
2013,04,21,12,14,10.70
2013,04,21,12,15,10.60
2013,04,21,12,16,10.60
2013,04,21,12,17,10.60
2013,04,21,12,18,10.50
2013,04,21,12,19,10.50
2013,04,21,12,20,10.40
2013,04,21,12,21,10.40
2013,04,21,12,22,10.40
2013,04,21,12,23,10.40
2013,04,21,12,24,10.40
2013,04,21,12,25,10.40
2013,04,21,12,26,10.40
2013,04,21,12,27,10.40
2013,04,21,12,28,10.40
2013,04,21,12,29,10.40
2013,04,21,12,30,10.40
2013,04,21,12,31,10.40
2013,04,21,12,32,10.40
2013,04,21,12,33,10.40
2013,04,21,12,34,10.50
2013,04,21,12,35,10.50
2013,04,21,12,36,10.50
2013,04,21,12,37,10.50
2013,04,21,12,38,10.50
2013,04,21,12,39,10.50
2013,04,21,12,40,10.50
2013,04,21,12,41,10.50
2013,04,21,12,42,10.40
2013,04,21,12,43,10.40
2013,04,21,12,44,10.40
2013,04,21,12,45,10.40
2013,04,21,12,46,10.30
2013,04,21,12,47,10.30
2013,04,21,12,48,10.30
2013,04,21,12,49,10.30
2013,04,21,12,50,10.30
2013,04,21,12,51,10.20
2013,04,21,12,52,10.20
2013,04,21,12,53,10.20
2013,04,21,12,54,10.20
2013,04,21,12,55,10.10
2013,04,21,12,56,10.10
2013,04,21,12,57,10.10
2013,04,21,12,58,10.00
2013,04,21,12,59,10.00
2013,04,21,13,00,10.00
2013,04,21,13,01,10.00
2013,04,21,13,02,10.00
2013,04,21,13,03,10.00
2013,04,21,13,04,10.00
2013,04,21,13,05,10.00
2013,04,21,13,06,9.90
2013,04,21,13,07,9.90
2013,04,21,13,08,9.90
2013,04,21,13,09,9.90
2013,04,21,13,10,9.90
2013,04,21,13,11,9.90
2013,04,21,13,12,9.80
2013,04,21,13,13,9.80
2013,04,21,13,14,9.70
2013,04,21,13,15,9.70
2013,04,21,13,16,9.60
2013,04,21,13,17,9.60
2013,04,21,13,18,9.60
2013,04,21,13,19,9.50
2013,04,21,13,20,9.40
2013,04,21,13,21,9.40
2013,04,21,13,22,9.40
2013,04,21,13,23,9.30
2013,04,21,13,24,9.30
2013,04,21,13,25,9.30
2013,04,21,13,26,9.20
2013,04,21,13,27,9.20
2013,04,21,13,28,9.20
2013,04,21,13,29,9.20
2013,04,21,13,30,9.20
2013,04,21,13,31,9.10
2013,04,21,13,32,9.10
2013,04,21,13,33,9.10
2013,04,21,13,34,9.10
2013,04,21,13,35,9.10
2013,04,21,13,36,9.00
2013,04,21,13,37,9.00
2013,04,21,13,38,9.00
2013,04,21,13,39,8.90
2013,04,21,13,40,8.90
2013,04,21,13,41,8.90
2013,04,21,13,42,8.90
2013,04,21,13,43,8.80
2013,04,21,13,44,8.80
2013,04,21,13,45,8.80
2013,04,21,13,46,8.80
2013,04,21,13,47,8.80
2013,04,21,13,48,8.90
2013,04,21,13,49,9.00
2013,04,21,13,50,9.00
2013,04,21,13,51,9.10
2013,04,21,13,52,9.10
2013,04,21,13,53,9.20
2013,04,21,13,54,9.20
2013,04,21,13,55,9.20
2013,04,21,13,56,9.20
2013,04,21,13,57,9.20
2013,04,21,13,58,9.20
2013,04,21,13,59,9.20
2013,04,21,14,00,9.20
2013,04,21,14,01,9.20
2013,04,21,14,02,9.20
2013,04,21,14,03,9.20
2013,04,21,14,04,9.20
2013,04,21,14,05,9.20
2013,04,21,14,06,9.30
2013,04,21,14,07,9.30
2013,04,21,14,08,9.30
2013,04,21,14,09,9.20
2013,04,21,14,10,9.10
2013,04,21,14,11,9.00
2013,04,21,14,12,8.90
2013,04,21,14,13,8.90
2013,04,21,14,14,8.80
2013,04,21,14,15,8.80
2013,04,21,14,16,8.70
2013,04,21,14,17,8.70
2013,04,21,14,18,8.70
2013,04,21,14,19,8.60
2013,04,21,14,20,8.60
2013,04,21,14,21,8.60
2013,04,21,14,22,8.50
2013,04,21,14,23,8.40
2013,04,21,14,24,8.30
2013,04,21,14,25,8.30
2013,04,21,14,26,8.20
2013,04,21,14,27,8.20
2013,04,21,14,28,8.20
2013,04,21,14,29,8.20
2013,04,21,14,30,8.20
2013,04,21,14,31,8.20
2013,04,21,14,32,8.20
2013,04,21,14,33,8.20
2013,04,21,14,34,8.20
2013,04,21,14,35,8.20
2013,04,21,14,36,8.10
2013,04,21,14,37,8.10
2013,04,21,14,38,8.10
2013,04,21,14,39,8.00
2013,04,21,14,40,8.00
2013,04,21,14,41,7.90
2013,04,21,14,42,7.90
2013,04,21,14,43,7.80
2013,04,21,14,44,7.80
2013,04,21,14,45,7.70
2013,04,21,14,46,7.60
2013,04,21,14,47,7.60
2013,04,21,14,48,7.60
2013,04,21,14,49,7.50
2013,04,21,14,50,7.50
2013,04,21,14,51,7.40
2013,04,21,14,52,7.30
2013,04,21,14,53,7.30
2013,04,21,14,54,7.20
2013,04,21,14,55,7.20
2013,04,21,14,56,7.20
2013,04,21,14,57,7.10
2013,04,21,14,58,7.10
2013,04,21,14,59,7.00
2013,04,21,15,00,7.00
2013,04,21,15,01,6.90
2013,04,21,15,02,6.90
2013,04,21,15,03,6.90
2013,04,21,15,04,6.90
2013,04,21,15,05,6.80
2013,04,21,15,06,6.80
2013,04,21,15,07,6.80
2013,04,21,15,08,6.80
2013,04,21,15,09,6.70
2013,04,21,15,10,6.70
2013,04,21,15,11,6.70
2013,04,21,15,12,6.70
2013,04,21,15,13,6.70
2013,04,21,15,14,6.70
2013,04,21,15,15,6.70
2013,04,21,15,16,6.60
2013,04,21,15,17,6.60
2013,04,21,15,18,6.60
2013,04,21,15,19,6.60
2013,04,21,15,20,6.60
2013,04,21,15,21,6.60
2013,04,21,15,22,6.60
2013,04,21,15,23,6.70
2013,04,21,15,24,6.60
2013,04,21,15,25,6.60
2013,04,21,15,26,6.60
2013,04,21,15,27,6.60
2013,04,21,15,28,6.60
2013,04,21,15,29,6.60
2013,04,21,15,30,6.60
2013,04,21,15,31,6.60
2013,04,21,15,32,6.60
2013,04,21,15,33,6.60
2013,04,21,15,34,6.60
2013,04,21,15,35,6.70
2013,04,21,15,36,6.70
2013,04,21,15,37,6.70
2013,04,21,15,38,6.70
2013,04,21,15,39,6.70
2013,04,21,15,40,6.70
2013,04,21,15,41,6.80
2013,04,21,15,42,6.80
2013,04,21,15,43,6.80
2013,04,21,15,44,6.80
2013,04,21,15,45,6.80
2013,04,21,15,46,6.80
2013,04,21,15,47,6.80
2013,04,21,15,48,6.80
2013,04,21,15,49,6.80
2013,04,21,15,50,6.80
2013,04,21,15,51,6.90
2013,04,21,15,52,6.90
2013,04,21,15,53,6.90
2013,04,21,15,54,7.00
2013,04,21,15,55,7.00
2013,04,21,15,56,7.00
2013,04,21,15,57,7.00
2013,04,21,15,58,7.00
2013,04,21,15,59,7.10
2013,04,21,16,00,7.10
2013,04,21,16,01,7.10
2013,04,21,16,02,7.10
2013,04,21,16,03,7.10
2013,04,21,16,04,7.20
2013,04,21,16,05,7.20
2013,04,21,16,06,7.20
2013,04,21,16,07,7.20
2013,04,21,16,08,7.20
2013,04,21,16,09,7.20
2013,04,21,16,10,7.20
2013,04,21,16,11,7.20
2013,04,21,16,12,7.20
2013,04,21,16,13,7.30
2013,04,21,16,14,7.30
2013,04,21,16,15,7.30
2013,04,21,16,16,7.30
2013,04,21,16,17,7.40
2013,04,21,16,18,7.40
2013,04,21,16,19,7.40
2013,04,21,16,20,7.40
2013,04,21,16,21,7.50
2013,04,21,16,22,7.50
2013,04,21,16,23,7.50
2013,04,21,16,24,7.50
2013,04,21,16,25,7.50
2013,04,21,16,26,7.50
2013,04,21,16,27,7.50
2013,04,21,16,28,7.50
2013,04,21,16,29,7.50
2013,04,21,16,30,7.50
2013,04,21,16,31,7.60
2013,04,21,16,32,7.60
2013,04,21,16,33,7.60
2013,04,21,16,34,7.60
2013,04,21,16,35,7.70
2013,04,21,16,36,7.70
2013,04,21,16,37,7.70
2013,04,21,16,38,7.70
2013,04,21,16,39,7.70
2013,04,21,16,40,7.70
2013,04,21,16,41,7.70
2013,04,21,16,42,7.70
2013,04,21,16,43,7.70
2013,04,21,16,44,7.70
2013,04,21,16,45,7.60
2013,04,21,16,46,7.60
2013,04,21,16,47,7.60
2013,04,21,16,48,7.60
2013,04,21,16,49,7.50
2013,04,21,16,50,7.50
2013,04,21,16,51,7.60
2013,04,21,16,52,7.60
2013,04,21,16,53,7.60
2013,04,21,16,54,7.60
2013,04,21,16,55,7.60
2013,04,21,16,56,7.70
2013,04,21,16,57,7.70
2013,04,21,16,58,7.70
2013,04,21,16,59,7.70
2013,04,21,17,00,7.70
2013,04,21,17,01,7.70
2013,04,21,17,02,7.70
2013,04,21,17,03,7.60
2013,04,21,17,04,7.60
2013,04,21,17,05,7.60
2013,04,21,17,06,7.70
2013,04,21,17,07,7.70
2013,04,21,17,08,7.70
2013,04,21,17,09,7.70
2013,04,21,17,10,7.70
2013,04,21,17,11,7.70
2013,04,21,17,12,7.70
2013,04,21,17,13,7.70
2013,04,21,17,14,7.70
2013,04,21,17,15,7.70
2013,04,21,17,16,7.80
2013,04,21,17,17,7.80
2013,04,21,17,18,7.80
2013,04,21,17,19,7.80
2013,04,21,17,20,7.80
2013,04,21,17,21,7.80
2013,04,21,17,22,7.80
2013,04,21,17,23,7.80
2013,04,21,17,24,7.80
2013,04,21,17,25,7.90
2013,04,21,17,26,7.90
2013,04,21,17,27,7.90
2013,04,21,17,28,7.90
2013,04,21,17,29,7.90
2013,04,21,17,30,7.90
2013,04,21,17,31,7.90
2013,04,21,17,32,7.90
2013,04,21,17,33,8.00
2013,04,21,17,34,8.00
2013,04,21,17,35,8.00
2013,04,21,17,36,8.00
2013,04,21,17,37,8.00
2013,04,21,17,38,8.00
2013,04,21,17,39,8.00
2013,04,21,17,40,8.00
2013,04,21,17,41,8.00
2013,04,21,17,42,8.00
2013,04,21,17,43,8.00
2013,04,21,17,44,8.00
2013,04,21,17,45,8.10
2013,04,21,17,46,8.10
2013,04,21,17,47,8.10
2013,04,21,17,48,8.10
2013,04,21,17,49,8.10
2013,04,21,17,50,8.10
2013,04,21,17,51,8.10
2013,04,21,17,52,8.10
2013,04,21,17,53,8.10
2013,04,21,17,54,8.10
2013,04,21,17,55,8.10
2013,04,21,17,56,8.10
2013,04,21,17,57,8.20
2013,04,21,17,58,8.20